Location: Branche des Alpilles
(43.6087°N, 4.6976°E)
Time: 04:57:12
(UTC+00:00)

CZ-2D R/B - Pass Details

Date: 30 November 2020
Orbit: 520 x 538 km, 97.4° (Epoch: 24 January)

Event Time Altitude Azimuth Distance (km) Brightness Sun altitude
Rises 17:59:24 0° 167° (SSE) 2,643 6.8 -20.0°
Reaches altitude 10° 18:01:29 10° 168° (SSE) 1,762 5.9 -20.4°
Maximum altitude 18:05:17 86° 258° (WSW) 536 3.2 -21.0°
Drops below altitude 10° 18:09:09 10° 347° (NNW) 1,788 6.0 -21.7°
Sets 18:11:17 0° 348° (NNW) 2,686 6.9 -22.1°
